This is the latest recevied weather packets stored in our database for station/object KM4CBK. If no packets are shown the sender has not sent any weather packets the latest 10 day(s).
| Time | Temp. | Humidity | Pressure | Rain* | Wind** | Luminosity | Snow |
|---|---|---|---|---|---|---|---|
| 1777462773 | 17.78° C | 99% | 1015.2 hPa | 0 mm | - | 0 W/m² | - |
| 1777462468 | 17.78° C | 99% | 1015.3 hPa | 0 mm | - | 0 W/m² | - |
| 1777462165 | 17.78° C | 99% | 1015 hPa | 0 mm | - | 0 W/m² | - |
| 1777461862 | 17.78° C | 99% | 1015 hPa | 0 mm | - | 1 W/m² | - |
| 1777461558 | 17.78° C | 99% | 1014.8 hPa | 0 mm | - | 0 W/m² | - |
| 1777461254 | 17.78° C | 99% | 1014.6 hPa | 0 mm | - | 0 W/m² | - |
| 1777460949 | 17.78° C | 99% | 1014.4 hPa | 0 mm | - | 0 W/m² | - |
| 1777460645 | 17.78° C | 99% | 1014.7 hPa | 0.51 mm | - | 0 W/m² | - |
| 1777460341 | 17.78° C | 99% | 1014.8 hPa | 1.27 mm | - | 0 W/m² | - |
| 1777460037 | 17.78° C | 99% | 1014.6 hPa | 0.51 mm | - | 0 W/m² | - |
| 1777459735 | 17.78° C | 99% | 1014.5 hPa | 0 mm | - | 0 W/m² | - |
| 1777459431 | 17.78° C | 99% | 1014.7 hPa | 1.78 mm | - | 0 W/m² | - |
| 1777459129 | 17.78° C | 99% | 1015.2 hPa | 3.56 mm | - | 0 W/m² | - |
| 1777458826 | 17.78° C | 99% | 1015.6 hPa | 2.29 mm | - | 0 W/m² | - |
| 1777458522 | 17.78° C | 99% | 1015.9 hPa | 0 mm | - | 0 W/m² | - |
| 1777458220 | 17.78° C | 99% | 1016 hPa | 0 mm | - | 0 W/m² | - |
| 1777457920 | 17.78° C | 99% | 1016.2 hPa | 0.51 mm | - | 0 W/m² | - |
| 1777457617 | 17.78° C | 99% | 1016.2 hPa | 1.27 mm | - | 0 W/m² | - |
| 1777457311 | 17.78° C | 99% | 1016.4 hPa | 1.27 mm | - | 0 W/m² | - |
| 1777457007 | 17.78° C | 99% | 1016.1 hPa | 0 mm | - | 0 W/m² | - |
| 1777456703 | 17.78° C | 99% | 1016.2 hPa | 0 mm | - | 0 W/m² | - |
| 1777456397 | 17.78° C | 99% | 1016.3 hPa | 0 mm | - | 0 W/m² | - |
| 1777456094 | 17.78° C | 99% | 1015.8 hPa | 0 mm | - | 0 W/m² | - |
| 1777455790 | 17.78° C | 99% | 1015.5 hPa | 0 mm | - | 0 W/m² | - |
| 1777455487 | 17.78° C | 99% | 1015.2 hPa | 0 mm | - | 0 W/m² | - |
* Rain latest hour (hover to see other rain measurements)
** Current wind speed in m/s (hover to see current wind gust speed)